Theta_e
313 311 314 318 320 322 327 326 330 331 326 331 332 329 328 323 325 325 325 326 324 326 324 322 322 320 322 322 322 324 324 321 322 324 330 337 322 319 321 318 320 320 320 323 324 327 333 336 336 336 336 335 334 334 334 334 333 333 333 333 333 332 332 332 332 331 331 331 330 330 330 329 329 328 327 328 328 327 327 326 326 326 326 326 328 328 327 328 328 327 326 326 326 325 325 326 326
313 312 316 321 322 324 329 327 332 331 329 335 331 330 330 324 325 327 327 325 326 327 321 321 322 321 322 322 321 320 322 322 321 321 323 323 320 322 319 319 321 320 321 322 324 326 331 336 336 336 336 335 335 334 334 334 333 333 332 333 333 332 332 332 331 331 331 330 331 330 330 329 329 328 328 328 327 327 326 326 327 325 325 326 327 328 327 327 327 327 327 326 326 325 325 326 326
314 314 317 322 323 325 330 330 332 329 332 337 330 328 328 327 328 328 327 325 324 324 321 322 322 323 322 322 321 322 325 324 321 320 320 318 319 321 319 321 320 321 323 323 326 325 328 335 335 336 336 335 335 334 334 333 333 332 332 332 332 332 332 331 331 331 331 330 330 330 329 329 329 328 328 328 327 327 326 326 327 325 325 326 326 327 327 326 327 326 326 325 326 325 325 326 326
315 315 317 323 326 329 334 333 331 331 335 336 330 327 328 331 329 326 325 323 322 321 322 321 322 323 322 323 323 321 325 325 321 319 319 318 319 320 319 321 321 322 324 325 328 326 327 334 336 335 336 336 335 335 334 333 333 332 332 332 332 331 331 331 331 331 331 330 330 330 329 329 328 328 327 327 327 327 326 325 326 326 324 325 326 326 327 327 326 325 325 325 325 325 324 325 325
315 316 317 323 330 330 332 330 328 329 333 333 333 332 332 333 329 327 326 324 323 322 322 321 323 324 321 323 322 322 327 326 320 317 317 319 319 320 319 320 321 321 323 326 328 328 329 333 335 335 336 336 335 335 334 333 333 333 332 332 332 331 331 331 331 331 330 330 330 330 329 329 328 328 327 327 327 326 326 324 325 326 324 324 325 325 325 326 326 325 325 325 324 324 325 325 324
315 317 319 320 323 325 328 331 329 327 329 330 332 335 335 332 328 327 326 324 323 324 325 322 323 324 322 322 321 322 325 323 320 319 318 320 321 319 319 319 320 320 321 326 329 328 330 333 334 335 335 335 335 335 334 333 333 333 333 332 332 332 332 331 330 330 330 330 329 330 329 329 329 328 327 327 327 326 327 325 324 327 325 324 325 326 325 325 326 325 325 325 324 324 324 325 324
314 317 322 324 322 323 329 332 331 328 328 328 328 328 329 328 325 325 324 323 322 324 325 324 324 322 323 322 322 321 321 320 320 321 320 321 322 319 321 321 320 320 320 325 328 328 328 331 333 335 335 335 335 335 334 333 333 333 332 332 332 331 331 331 329 330 330 329 329 330 329 329 329 327 327 326 326 327 327 325 325 327 325 324 324 326 325 324 326 325 324 325 324 324 324 324 324
315 318 321 328 328 324 329 331 329 327 327 326 326 327 326 326 324 322 323 322 322 322 322 323 323 321 324 323 323 323 318 320 320 319 320 321 321 320 322 323 322 320 320 322 326 328 327 328 330 334 334 334 335 335 335 334 333 333 332 331 331 331 331 331 329 329 330 330 329 329 329 329 328 328 328 327 326 327 327 325 325 326 326 325 324 325 325 324 325 324 324 324 325 324 323 323 324
314 317 319 325 326 324 328 329 327 325 326 324 324 326 325 324 322 321 322 321 321 321 320 320 320 320 323 323 325 323 318 318 319 319 320 321 319 320 322 324 324 322 323 323 324 326 327 328 328 332 333 334 335 335 335 334 334 332 332 331 331 331 330 331 330 330 330 330 329 329 329 329 328 327 328 328 327 327 327 325 325 326 326 325 324 325 325 324 324 324 324 324 324 324 323 323 323
315 316 320 324 323 324 326 325 325 325 325 324 323 322 321 320 319 320 320 320 320 320 320 318 317 320 322 322 322 320 318 318 318 319 320 321 320 321 322 323 324 323 325 325 325 324 325 328 327 330 333 334 335 336 335 334 334 333 332 332 331 331 330 331 331 330 329 330 330 329 329 329 328 328 327 328 327 327 327 326 325 326 326 326 325 325 324 324 324 324 324 324 324 324 324 323 322
322 321 321 322 323 326 325 323 323 322 321 321 320 319 318 318 317 319 319 319 319 319 320 316 317 321 320 320 323 319 316 317 317 319 319 320 320 320 321 321 322 323 324 326 327 325 324 326 326 326 329 332 335 335 336 335 334 333 332 332 331 331 331 330 330 330 329 329 330 329 329 329 329 328 327 327 326 326 327 326 325 326 326 326 326 325 324 324 324 323 323 323 324 324 323 322 322
322 323 324 324 327 327 325 324 322 320 319 319 320 320 320 320 318 320 321 320 318 318 318 316 315 319 318 318 324 321 315 316 316 319 319 318 318 318 319 319 320 321 322 324 325 325 324 324 325 325 326 330 334 335 335 335 335 334 333 332 332 331 331 329 330 330 329 329 329 329 329 329 328 327 327 327 326 325 326 326 325 326 325 325 325 325 324 324 324 322 322 322 323 324 323 322 322
323 324 327 326 325 326 324 325 323 320 321 321 322 321 319 319 320 321 320 319 318 317 317 317 316 315 316 316 319 318 314 316 316 318 318 316 317 317 318 318 319 320 321 322 322 323 324 324 325 326 325 327 331 334 333 335 335 334 333 333 332 331 331 330 330 330 330 329 329 328 328 329 328 327 327 326 326 325 326 326 325 325 325 325 325 325 324 324 324 323 321 321 322 323 323 322 321
324 323 325 323 321 324 324 324 325 323 322 320 321 321 318 318 321 321 317 317 317 317 316 315 315 314 316 315 319 324 318 315 317 316 316 315 317 316 317 318 318 320 321 321 321 322 323 323 324 325 325 325 329 332 332 334 335 334 333 333 332 332 331 330 330 329 329 329 329 328 328 329 328 328 327 326 326 325 326 326 325 325 325 325 325 325 324 324 324 323 322 321 321 322 322 322 320
318 322 323 323 322 323 322 323 324 323 320 317 318 319 318 319 319 317 316 317 316 315 314 312 313 314 319 318 321 329 320 314 316 314 315 316 316 316 317 317 317 319 320 321 321 321 321 323 323 323 324 325 327 329 330 332 334 335 333 333 332 331 331 330 330 329 328 329 329 329 328 328 328 328 328 327 326 325 325 326 325 325 325 325 325 325 324 324 324 323 323 322 322 321 322 321 321
318 326 323 321 324 322 321 322 322 321 320 320 319 316 316 319 317 316 316 316 315 313 313 313 313 313 318 318 316 319 316 314 315 313 314 315 315 316 316 316 316 318 318 320 322 321 320 322 323 323 323 324 327 327 326 329 332 334 333 332 332 331 331 330 330 329 328 329 330 329 328 328 328 328 328 327 326 325 324 325 325 324 324 324 324 325 325 324 324 323 323 323 322 322 321 321 321
319 326 323 322 324 322 322 323 323 323 324 325 322 317 316 317 316 315 314 314 314 313 313 313 312 313 314 314 313 313 313 313 313 313 314 314 315 316 316 316 316 317 318 319 322 322 320 320 322 323 322 322 328 327 325 328 330 332 333 332 331 331 330 330 330 330 328 328 329 330 329 328 328 328 327 327 327 326 324 324 324 324 324 324 324 324 324 324 324 323 323 323 322 322 322 321 321
318 321 322 323 323 321 322 325 324 320 320 321 319 316 316 316 315 314 313 313 313 313 313 312 312 311 311 311 312 312 312 312 312 312 312 313 314 315 316 316 316 317 317 318 320 321 321 321 321 323 324 323 327 328 326 327 328 330 332 332 331 332 331 329 329 330 329 329 328 329 329 328 327 327 327 327 327 326 325 324 324 324 323 324 324 324 324 323 323 323 323 323 322 322 322 321 321
320 323 321 322 322 321 320 323 323 318 317 318 316 315 315 315 315 313 313 314 313 313 312 312 312 311 311 310 310 310 310 310 310 310 311 312 312 314 315 315 316 316 316 317 318 320 321 321 321 323 324 325 326 327 326 327 328 329 331 332 332 332 332 330 328 329 329 328 328 328 328 328 327 327 326 327 326 326 326 325 324 324 323 323 323 323 324 323 323 323 323 322 322 322 321 321 320
320 322 321 322 321 320 318 319 320 318 317 316 315 315 315 314 314 313 313 314 313 313 312 312 313 312 312 311 309 308 308 308 309 309 308 309 310 312 314 315 316 316 315 316 316 319 320 319 320 321 323 325 325 326 327 327 329 330 330 332 332 331 332 330 329 329 329 329 328 328 328 327 327 327 326 326 326 326 326 325 324 324 323 323 322 321 323 323 323 323 323 322 322 322 321 321 320
319 318 321 324 319 318 317 317 317 316 316 316 315 314 314 313 313 313 313 314 313 312 312 312 313 312 312 311 310 309 308 309 308 307 308 309 309 311 313 314 315 315 315 315 316 318 319 318 318 320 322 324 325 326 327 327 330 332 331 331 332 332 332 331 329 329 329 329 328 328 327 327 327 327 326 326 326 326 326 325 325 324 323 323 323 321 321 322 322 323 322 322 322 322 321 321 320
318 317 319 321 318 317 316 317 318 317 316 315 314 313 313 311 312 313 312 313 313 312 312 312 312 312 311 311 310 309 310 311 309 309 309 308 308 310 311 313 314 314 315 315 316 316 317 317 317 320 322 324 325 326 328 330 332 333 331 331 332 332 332 332 330 329 329 329 329 328 328 328 328 327 326 326 326 326 326 325 325 325 323 323 323 322 321 321 321 321 322 322 322 321 321 320 319
316 317 318 318 316 315 314 313 315 315 313 313 312 312 312 311 311 311 312 312 311 311 312 311 311 311 310 310 310 310 310 310 310 309 308 307 307 308 310 311 313 313 314 315 315 315 315 315 317 319 320 321 323 325 329 331 332 332 331 331 332 332 332 333 331 330 329 329 329 329 328 328 328 327 326 326 325 325 325 325 325 325 324 324 323 323 323 322 321 321 321 321 321 321 320 320 318
313 315 317 315 314 313 312 311 311 312 311 311 310 311 312 312 313 312 313 312 311 311 311 311 311 310 310 309 310 309 309 309 309 308 307 307 307 308 309 310 311 312 313 313 313 314 314 314 317 318 317 317 319 321 327 329 330 331 332 332 332 332 332 332 331 331 330 329 329 329 328 328 328 327 327 327 326 325 324 324 325 325 324 324 324 323 323 323 323 322 320 320 320 320 320 319 318
314 314 314 314 315 315 313 312 312 313 312 312 312 313 313 312 313 313 313 312 312 311 311 311 311 311 311 310 310 309 309 309 309 308 307 308 307 308 308 308 309 310 311 312 312 313 313 314 316 316 315 315 316 317 322 326 327 329 331 331 331 331 331 331 331 331 331 330 329 328 329 328 328 327 327 327 327 325 324 323 324 325 325 324 324 324 324 323 323 322 321 321 320 319 319 318 317
316 315 315 314 315 314 313 314 314 314 313 313 313 313 313 312 312 313 313 312 312 312 313 313 312 312 312 311 310 310 309 309 309 308 308 308 308 307 308 308 308 309 310 311 311 312 313 314 315 315 314 315 315 315 318 322 325 326 328 329 329 330 330 330 330 331 331 330 330 329 328 328 328 328 327 326 326 325 324 323 324 325 325 325 324 324 324 324 323 323 322 322 321 321 319 317 316
315 315 316 315 315 314 314 315 313 313 312 312 314 314 313 312 313 315 314 315 314 314 315 314 312 313 312 311 310 309 310 309 308 308 308 308 307 307 307 308 308 309 309 310 311 311 312 313 314 314 314 314 314 315 315 318 323 324 325 325 327 329 329 330 330 330 330 330 330 329 328 328 328 328 327 326 325 325 324 324 324 325 325 325 325 324 324 324 323 323 323 322 322 321 320 318 316
316 317 316 315 316 315 314 314 313 312 313 315 315 314 313 312 313 316 314 315 315 314 315 314 312 312 310 310 309 309 309 308 307 307 308 308 307 307 307 307 308 308 309 309 310 311 312 312 313 313 313 313 314 315 315 316 319 322 324 324 325 327 328 329 330 329 330 329 329 329 329 328 328 327 327 327 326 325 324 324 324 325 325 325 325 325 324 323 323 323 323 323 322 322 321 320 318
316 317 316 316 315 315 314 313 313 313 316 318 316 313 315 315 316 315 313 313 313 313 314 313 311 310 310 309 309 308 308 308 307 307 308 307 307 308 308 308 308 308 309 309 310 310 311 311 312 312 312 313 314 314 314 315 316 319 322 324 325 325 327 329 329 329 329 328 328 328 328 328 328 327 327 327 327 326 325 325 324 324 324 325 325 325 324 324 323 322 322 322 322 322 321 321 320
317 316 317 316 314 316 317 313 312 314 316 316 315 313 315 321 320 314 311 312 313 314 314 312 310 310 309 309 309 308 308 308 308 307 307 307 308 308 308 308 308 308 309 309 310 310 310 311 311 312 312 313 313 314 315 315 315 317 320 323 324 326 327 327 328 328 328 327 327 326 327 327 327 326 326 327 327 327 326 326 325 325 324 324 324 324 324 324 323 323 322 322 322 321 321 321 321
317 315 316 315 315 322 323 316 313 314 315 313 313 315 313 317 321 318 314 312 313 314 312 311 311 310 309 309 309 309 309 309 308 307 307 307 307 307 308 308 308 308 309 309 309 309 310 310 311 311 311 312 313 314 314 315 315 315 317 320 322 324 325 326 326 327 328 327 326 326 325 325 325 326 326 326 326 326 326 326 326 325 325 324 324 324 324 324 323 323 322 322 322 321 321 321 321
318 316 319 318 318 322 320 314 315 316 315 313 312 317 315 311 316 319 317 314 313 312 311 311 311 310 309 309 309 310 310 310 309 307 307 307 307 307 307 308 308 308 308 309 309 309 310 310 310 311 311 312 313 314 314 314 315 315 316 318 320 322 325 325 325 325 327 327 327 326 325 324 324 325 326 326 326 326 326 325 325 325 325 324 324 324 324 323 323 323 323 322 322 322 321 321 321
317 314 319 322 319 319 315 312 314 314 314 316 314 315 315 311 312 315 314 313 313 312 311 311 310 310 310 310 310 310 310 310 310 308 307 307 307 307 307 307 307 308 308 308 309 309 309 310 310 310 311 311 312 313 314 314 315 315 316 318 319 321 324 325 324 325 326 327 327 326 325 325 324 324 325 325 325 324 324 324 325 324 324 324 324 324 324 323 323 323 322 322 322 322 321 321 321
321 316 318 320 318 317 317 313 313 312 312 316 314 312 312 311 311 312 311 312 313 312 311 310 310 310 310 311 310 310 311 310 310 309 307 307 307 307 307 307 307 307 307 308 308 309 309 309 310 310 310 311 311 312 313 314 315 315 316 317 319 321 323 324 324 326 327 326 326 326 325 325 324 324 324 325 325 324 323 324 324 324 324 324 324 324 323 323 323 322 322 322 322 321 321 321 321
323 322 319 318 316 316 316 313 312 312 312 313 313 312 312 311 311 311 310 311 312 311 311 310 311 311 311 311 310 310 310 310 310 309 306 306 306 306 307 306 307 307 307 307 308 308 309 309 309 309 310 310 311 311 312 314 315 317 319 320 322 323 324 325 326 326 326 326 326 325 325 325 324 324 324 324 324 324 324 324 324 324 324 324 323 323 323 322 322 321 321 321 321 321 321 320 321
315 317 316 316 315 314 313 312 313 313 312 313 313 313 312 312 312 311 311 311 311 311 311 311 311 311 311 310 310 310 310 311 310 306 304 305 305 306 307 307 306 306 306 306 307 308 308 308 308 309 309 310 310 311 313 315 318 320 322 324 325 325 325 325 325 325 325 325 324 324 324 324 324 324 324 324 324 324 324 324 325 324 324 323 323 323 322 322 322 321 321 321 320 320 320 320 320
314 314 315 315 314 314 312 311 314 313 313 314 314 313 313 312 312 311 311 311 312 312 312 312 312 312 311 311 311 311 311 311 308 304 302 303 305 307 307 308 307 306 306 306 306 307 307 308 308 308 309 309 309 311 313 315 318 320 322 324 325 325 325 325 325 325 325 324 323 324 325 324 324 324 324 324 324 324 324 325 325 324 324 323 323 323 322 322 322 322 321 320 320 320 320 319 319
316 315 315 314 313 314 313 312 313 312 314 316 315 314 312 311 312 311 312 312 312 312 312 312 312 312 311 311 312 312 310 309 307 307 305 302 303 307 308 309 308 306 306 306 305 306 307 308 308 308 309 309 309 310 311 314 315 317 319 321 323 324 324 324 325 325 324 324 324 325 326 326 326 325 325 325 324 325 324 325 325 324 324 323 323 322 322 322 322 322 321 320 319 319 319 319 318
315 315 314 314 314 313 312 313 315 312 313 315 314 313 313 312 312 311 311 311 311 311 311 312 312 313 313 312 313 312 311 310 309 311 311 305 301 304 308 310 310 309 309 308 307 306 306 307 308 308 308 308 309 309 310 312 313 314 315 317 319 320 322 322 322 323 323 325 325 326 326 326 326 326 326 325 325 325 325 325 325 324 324 323 323 322 322 322 322 322 321 320 319 318 318 317 316
314 314 314 314 314 314 313 314 316 313 313 314 314 313 313 312 311 313 315 314 314 314 315 315 313 313 314 312 312 311 312 314 313 312 313 309 303 302 304 307 309 310 312 312 310 309 307 306 306 307 308 308 308 309 310 311 312 313 315 316 317 319 321 322 323 324 324 325 326 326 326 326 326 326 325 325 325 325 325 325 324 324 324 323 323 322 322 322 322 321 320 320 319 317 316 315 315
313 312 314 314 313 314 313 314 314 313 314 314 313 314 317 319 320 323 322 317 316 316 316 318 315 312 311 310 311 311 312 314 313 313 313 312 311 306 301 304 308 309 312 313 312 311 310 309 307 306 307 308 309 309 309 310 311 314 316 317 318 319 320 321 322 323 323 324 325 325 326 326 326 326 326 326 325 325 325 325 325 324 324 323 323 323 323 323 322 322 321 320 319 318 316 314 314
313 312 313 313 314 314 313 313 313 315 319 315 313 318 323 326 326 324 319 315 314 314 314 315 314 313 312 313 316 316 315 314 312 312 312 313 314 309 301 301 306 308 310 312 312 312 310 310 310 307 305 306 308 309 309 309 311 313 316 317 318 318 319 319 320 321 322 323 323 323 324 325 325 326 326 326 326 325 325 325 324 324 324 323 323 323 323 322 322 322 321 320 320 320 318 314 313
314 315 315 314 313 313 313 313 313 318 321 314 313 319 321 320 318 316 315 314 314 313 314 315 314 315 317 318 319 318 317 317 315 314 315 315 315 315 308 302 303 306 308 311 312 313 311 309 310 309 308 306 306 307 308 309 310 312 314 316 317 317 318 318 319 320 320 320 321 321 322 324 324 325 325 325 325 325 325 325 324 324 324 324 324 323 323 322 322 322 321 321 320 320 318 315 313
316 315 316 317 314 313 313 313 314 317 316 313 315 318 318 318 317 317 317 317 315 314 315 315 314 318 320 320 319 319 319 318 319 320 319 317 316 317 310 302 302 304 306 311 312 312 312 310 309 309 309 308 306 306 307 308 309 311 313 315 316 317 317 317 318 319 319 319 320 321 321 322 323 324 324 324 324 325 325 325 324 324 324 324 323 323 323 322 322 321 320 320 320 318 318 317 315
316 312 313 315 314 314 314 314 315 314 313 316 317 315 317 320 320 322 320 316 317 317 316 314 313 315 316 320 322 321 322 320 320 320 317 318 318 312 303 300 303 304 305 310 313 312 312 311 310 309 308 309 307 305 305 307 309 310 312 314 315 316 316 316 317 318 318 319 320 320 321 321 322 322 323 323 324 324 324 324 324 324 324 324 324 323 323 323 322 321 320 320 319 318 318 318 316
314 310 311 313 314 313 313 314 315 315 315 318 318 315 317 319 319 323 322 318 321 322 319 317 316 316 316 319 322 321 323 323 323 321 319 320 313 303 300 301 304 305 304 308 312 311 310 310 311 310 308 308 306 305 305 306 308 309 311 312 314 315 315 316 316 317 317 318 319 319 320 320 321 321 322 322 323 323 324 324 324 324 324 324 324 323 323 322 322 321 321 320 320 319 318 318 317
311 311 314 316 316 314 314 314 314 317 318 317 318 317 317 318 321 327 324 320 321 321 322 321 317 317 318 319 321 321 322 322 323 323 324 322 308 297 299 301 303 305 305 306 311 312 311 310 310 309 309 309 307 306 305 305 307 309 310 311 312 313 314 315 315 315 316 317 318 318 319 320 320 321 321 322 322 322 323 323 323 323 324 324 323 323 323 322 322 321 321 320 320 320 318 317 316
311 316 319 318 317 315 316 316 315 319 320 316 315 314 314 317 322 326 322 316 315 315 319 320 317 317 317 318 320 322 323 323 324 325 325 325 316 307 305 302 301 305 305 305 308 311 313 312 311 309 308 309 309 307 306 306 306 308 309 310 311 312 313 314 314 315 315 316 316 317 318 319 319 320 321 321 321 322 322 323 323 323 323 324 323 323 323 322 322 321 321 320 319 319 318 317 316
312 316 318 318 318 317 319 317 315 317 317 314 314 313 313 315 317 316 315 313 313 313 313 313 313 315 315 316 318 320 325 326 326 327 325 326 324 319 318 309 300 301 304 305 305 307 311 313 312 311 309 308 309 308 307 307 307 308 309 310 311 311 312 312 313 314 314 315 315 316 317 317 318 319 320 321 321 321 322 322 323 323 323 323 323 323 323 322 322 321 320 320 319 319 318 317 316
312 314 316 318 317 318 322 318 314 316 316 312 311 313 315 316 316 315 313 312 312 312 312 312 310 311 313 315 317 319 323 324 325 327 327 328 325 321 322 311 298 299 303 304 305 305 308 311 311 311 311 309 308 308 308 308 307 308 308 309 310 311 311 312 312 313 313 314 314 315 316 316 317 318 319 319 320 320 321 321 322 322 323 323 323 323 323 322 321 321 320 320 319 319 318 317 317
310 313 316 318 315 317 323 323 320 321 320 313 309 314 320 322 320 316 314 314 314 313 313 313 311 310 310 313 316 317 318 319 323 326 327 328 325 323 318 304 296 299 302 302 305 305 306 308 310 311 311 311 310 308 308 308 308 308 308 309 310 311 311 312 312 312 313 313 313 314 314 315 316 317 317 318 318 319 320 321 321 322 322 323 323 323 322 322 321 321 320 320 319 319 318 317 317
311 314 316 318 316 315 318 319 316 315 317 315 313 316 319 320 318 313 311 313 313 312 312 312 314 314 311 312 314 314 314 316 322 325 327 328 326 326 315 299 296 299 300 301 304 305 306 307 308 309 310 310 310 310 309 308 308 308 308 308 309 310 311 311 312 312 312 313 313 313 314 314 315 315 316 317 317 318 319 319 320 321 321 322 322 322 322 321 321 320 320 319 319 318 317 317 317
313 314 316 315 314 314 316 316 313 311 315 317 316 317 316 315 316 315 315 315 313 314 315 313 313 315 314 313 311 310 311 316 321 323 326 326 325 322 308 296 296 298 298 300 302 303 305 306 306 307 308 309 310 310 310 310 309 309 309 308 308 309 310 310 311 312 313 313 313 313 313 314 314 314 315 316 316 316 317 318 319 319 320 320 321 321 321 321 321 320 320 319 319 318 317 317 317
314 316 316 312 312 315 317 317 316 315 317 317 316 317 315 315 318 319 319 317 316 317 317 313 311 310 312 311 309 309 311 314 317 318 322 321 319 315 304 295 296 298 297 298 299 301 304 304 305 306 306 307 307 309 310 310 310 311 310 310 309 309 309 309 310 310 311 311 312 312 312 313 313 314 314 314 315 315 316 316 317 318 319 319 320 320 320 320 320 320 320 319 319 318 317 317 316
314 316 314 313 317 318 316 316 319 319 318 319 320 318 316 316 317 317 316 316 317 316 314 313 312 312 313 312 309 309 311 312 314 317 320 318 315 312 302 295 296 297 296 297 298 300 302 303 304 304 304 305 305 307 308 309 310 310 310 311 310 310 309 309 309 309 309 310 310 311 311 312 312 313 313 313 314 314 315 315 316 317 318 318 319 319 319 320 319 319 319 318 318 317 317 316 315
311 311 310 312 316 317 316 316 318 319 319 320 320 319 317 316 318 319 317 318 319 317 316 316 315 315 315 313 309 309 310 311 314 317 317 315 312 307 298 294 296 296 296 297 298 299 300 301 301 302 303 304 304 305 306 307 308 309 309 310 310 310 309 309 308 308 308 309 309 310 310 311 311 312 312 313 313 313 314 314 315 316 317 317 318 318 318 319 319 319 319 318 317 317 316 316 315
311 312 312 312 312 314 316 315 314 318 321 320 319 318 316 314 318 320 318 319 320 319 319 318 317 314 311 310 308 308 309 310 312 313 312 311 311 305 296 293 295 296 296 297 298 299 299 299 300 301 302 303 304 305 306 306 306 307 308 309 309 310 309 309 309 308 308 309 309 309 309 310 310 310 311 312 312 313 313 314 315 315 316 317 317 317 318 318 318 318 318 318 317 316 316 316 315
313 313 313 313 312 313 315 315 314 315 317 319 318 318 315 313 317 317 316 321 322 319 317 317 317 315 311 308 307 307 308 309 310 311 312 312 312 307 298 294 294 294 294 295 296 297 298 298 299 299 300 301 303 304 306 306 306 307 307 308 308 309 309 309 309 309 309 309 309 309 309 309 309 310 310 311 312 313 313 314 315 315 316 316 316 316 317 317 317 317 317 317 316 316 316 315 314
Wind_Speed
10 7 6 5 3 1 2 3 2 2 2 1 3 1 4 4 2 3 5 4 2 4 2 1 2 1 3 4 7 5 5 4 5 4 4 10 17 22 16 8 10 10 6 9 15 18 22 21 22 23 22 22 22 22 21 21 21 20 20 19 19 19 19 19 18 18 18 17 16 16 16 15 15 15 16 16 15 15 14 14 13 14 14 13 12 10 10 10 8 8 7 7 6 6 5 4 3
9 6 5 3 4 2 1 3 2 3 3 3 3 4 4 1 2 5 8 6 4 3 2 4 5 5 6 7 6 5 7 8 11 6 6 19 26 25 18 11 11 11 8 9 14 18 22 23 22 23 23 23 22 22 21 21 21 21 20 20 19 19 19 19 18 18 18 18 17 17 16 15 15 15 15 15 14 14 14 15 13 13 14 13 12 10 10 10 8 8 8 8 7 6 6 4 3
8 6 3 2 4 3 1 3 2 1 1 4 4 4 2 1 5 8 9 9 7 4 5 6 6 5 4 6 3 3 6 5 10 6 6 17 14 14 14 10 11 11 9 10 14 18 21 24 23 22 22 22 23 22 22 21 21 21 20 20 20 19 19 19 19 19 18 18 18 17 17 16 15 15 15 15 14 14 14 14 13 12 13 13 11 10 10 10 9 8 8 8 7 7 6 4 3
7 6 3 2 2 4 3 3 1 3 2 4 4 4 3 4 8 8 8 8 6 4 4 3 4 3 3 8 5 3 6 5 7 4 3 9 7 10 12 10 10 10 10 10 15 18 20 23 23 22 22 22 23 22 22 22 21 21 21 20 20 19 19 19 19 19 19 18 18 18 17 16 16 15 15 15 14 14 13 14 13 12 12 12 12 10 10 10 9 8 8 8 7 7 6 5 3
7 4 3 2 2 1 3 1 2 3 4 4 3 5 4 7 7 7 7 7 6 5 4 1 2 4 3 6 3 1 5 4 6 4 4 7 8 13 13 11 9 8 9 10 15 18 20 22 22 22 21 21 23 23 23 22 22 21 21 20 20 19 19 18 19 19 18 18 18 18 17 17 16 16 15 15 15 14 13 13 13 12 12 12 12 10 10 10 9 8 8 8 7 6 6 5 4
5 3 5 5 2 1 2 0 2 4 5 5 3 5 5 6 6 6 7 9 7 7 6 3 2 4 3 3 2 4 7 4 6 5 5 8 13 14 12 11 8 7 7 8 14 17 19 21 22 22 20 20 21 22 23 23 23 22 21 20 20 20 19 19 19 19 18 18 18 17 17 17 17 16 16 16 15 14 13 13 13 12 11 12 12 10 10 10 10 9 8 7 7 6 6 5 5
3 1 4 5 1 2 3 3 4 5 5 6 4 6 6 5 4 4 7 8 6 4 3 4 1 2 5 4 2 7 13 10 7 10 11 14 17 14 9 8 7 5 4 6 12 15 16 18 21 22 20 18 19 20 21 23 24 24 23 21 20 20 20 19 19 20 19 18 18 17 17 18 17 17 16 15 15 14 14 13 13 12 11 11 12 11 10 10 10 9 8 7 6 7 6 6 5
4 1 1 3 1 2 1 3 4 5 4 5 4 5 7 7 4 4 6 5 4 5 3 4 0 1 7 4 1 8 14 13 11 16 16 15 16 12 6 5 6 4 3 5 9 14 15 15 18 21 20 18 18 19 20 21 22 23 23 23 21 20 20 20 19 20 19 18 19 18 17 17 17 17 16 15 15 15 14 13 13 13 12 11 11 11 10 10 10 9 8 8 7 7 6 6 5
5 3 0 2 1 1 1 3 4 4 5 5 5 6 7 7 5 5 7 6 5 6 8 7 1 3 6 4 4 7 12 13 13 13 10 10 11 9 6 5 6 5 4 5 7 9 12 14 16 20 21 19 18 19 20 20 21 21 22 23 22 21 21 21 19 19 20 18 18 19 18 17 17 16 16 16 15 15 14 14 13 13 12 11 11 11 10 10 10 10 9 8 8 7 6 6 6
4 3 1 1 1 2 4 4 4 4 5 5 6 8 8 6 5 6 7 8 8 6 9 6 2 6 5 5 5 5 9 12 13 10 6 8 10 8 7 6 7 7 6 7 7 6 9 12 13 16 21 21 19 20 21 20 21 21 21 21 22 22 21 21 20 19 19 19 18 18 18 17 16 16 16 16 15 15 14 14 14 13 12 11 11 11 10 10 10 10 9 9 8 7 6 6 6
2 3 2 1 1 2 4 4 5 5 5 3 6 9 8 6 4 5 6 7 7 6 8 4 2 5 3 5 4 6 9 13 14 9 8 9 10 10 9 8 9 8 8 7 7 6 7 9 11 12 17 22 22 21 21 21 22 22 22 21 20 21 21 21 20 19 19 19 18 17 18 17 17 16 15 15 15 15 15 14 13 13 13 12 11 11 10 10 10 10 10 9 8 7 7 7 7
1 2 3 1 2 4 4 4 6 7 8 4 6 7 4 4 2 4 7 7 6 6 7 2 2 2 3 5 4 6 10 20 21 6 7 10 10 11 12 11 10 9 9 9 9 8 8 8 10 12 14 21 23 22 22 21 23 23 23 22 20 20 20 21 21 20 19 19 19 18 17 17 17 17 16 16 16 15 15 14 13 13 12 12 11 11 10 10 10 10 10 10 9 8 7 7 7
2 1 4 1 3 2 3 4 5 6 8 4 4 4 3 4 4 6 6 6 6 6 7 7 3 1 5 7 4 6 10 22 19 5 9 13 10 11 12 12 11 10 9 10 11 9 10 8 9 12 13 16 22 25 24 23 24 24 24 23 21 21 20 20 21 21 20 19 19 19 18 17 17 17 16 16 16 16 15 15 14 13 12 12 11 11 10 10 10 10 9 10 9 9 8 8 7
2 3 4 1 1 1 2 4 5 3 6 4 3 4 1 3 5 6 3 7 9 7 7 7 3 3 6 5 5 5 7 13 9 8 15 14 12 13 12 12 13 13 12 10 9 9 10 10 10 11 12 14 21 26 26 25 25 25 25 24 23 22 21 21 21 21 20 20 19 19 19 19 18 17 17 17 17 16 16 16 15 13 12 12 12 11 11 10 10 10 9 9 9 9 8 8 8
3 2 4 0 2 2 3 4 3 3 5 3 3 2 1 4 3 2 4 7 11 6 5 5 3 3 4 4 5 5 7 13 15 19 19 15 15 15 13 13 15 16 16 13 8 8 9 11 12 11 12 16 23 26 27 27 27 26 26 25 25 23 22 21 21 21 21 20 20 20 20 19 19 18 18 18 18 17 16 16 15 14 13 12 12 11 11 11 10 10 9 9 9 9 9 9 9
3 3 4 1 2 2 3 4 1 3 5 4 4 2 2 7 3 3 5 5 8 4 3 6 4 5 6 7 9 12 17 22 24 27 22 21 19 15 16 15 17 17 18 18 14 11 10 11 13 12 13 18 26 26 25 29 29 28 28 27 27 26 24 23 22 21 21 21 21 20 20 19 19 18 18 19 19 18 17 17 16 15 15 13 12 12 11 11 11 10 9 9 9 9 9 9 10
3 3 2 2 2 3 4 4 3 3 5 5 5 3 3 9 4 4 4 3 9 10 7 9 7 7 10 14 19 22 26 24 22 24 23 23 21 17 17 16 18 18 17 19 19 16 11 11 14 16 16 19 27 28 25 29 30 29 30 29 28 27 26 25 24 23 21 21 21 21 21 21 21 20 20 19 19 19 18 18 18 17 16 16 14 13 12 11 11 10 10 10 9 10 10 10 10
2 2 2 3 4 4 5 7 6 3 5 5 3 2 3 12 10 4 6 6 9 12 12 12 10 11 15 22 27 26 25 24 21 20 19 19 18 15 15 17 18 19 19 18 20 20 16 14 14 18 20 22 27 27 26 28 31 31 31 31 29 29 27 26 26 25 23 22 22 23 23 22 23 22 22 21 20 20 20 19 19 18 17 17 17 15 14 12 11 11 11 10 10 10 11 12 12
2 3 2 5 5 5 5 6 5 4 7 8 6 6 5 10 10 3 7 14 12 14 16 12 11 13 15 20 23 25 24 23 22 18 15 15 15 13 14 18 20 21 21 20 21 22 21 19 17 20 23 25 25 26 26 26 30 32 32 32 31 30 29 27 27 26 25 24 23 24 24 24 23 23 23 22 22 21 21 20 19 19 18 18 18 18 17 15 13 12 12 11 11 11 13 14 14
2 3 3 7 6 6 5 6 7 7 8 11 11 8 7 10 6 2 7 14 14 15 17 13 14 15 13 12 13 17 18 19 20 17 15 16 18 18 17 18 21 23 24 23 22 22 21 20 21 21 23 25 25 26 26 26 31 34 33 33 32 31 31 30 28 27 27 26 25 25 25 25 24 24 23 23 22 22 22 21 20 20 19 19 19 19 19 17 16 15 14 13 12 13 15 15 15
1 3 5 6 4 6 7 7 9 9 7 9 10 9 12 10 3 4 6 9 13 15 15 12 14 17 14 13 9 8 10 12 14 14 13 15 19 21 21 23 25 27 26 25 25 24 22 22 23 23 24 25 26 28 28 28 32 34 33 33 33 32 32 32 29 29 28 28 27 26 25 25 25 25 24 24 23 23 23 23 22 21 20 20 20 20 20 19 18 17 16 15 15 16 16 16 17
1 5 8 7 4 7 8 5 7 7 5 8 9 10 13 8 3 6 6 8 13 16 16 12 12 14 14 14 13 9 9 10 11 11 12 13 18 21 24 26 28 29 28 27 27 27 26 26 25 24 25 26 27 29 30 31 33 33 32 32 33 32 33 33 31 30 30 30 29 28 27 27 27 26 26 26 25 24 25 25 24 23 22 22 21 21 21 21 20 20 19 18 18 18 18 17 18
3 5 6 7 6 9 9 5 6 5 5 11 9 7 9 12 12 8 10 17 19 20 20 15 13 14 13 13 13 14 14 14 13 12 14 15 19 22 25 27 29 30 30 30 30 29 28 29 28 26 25 26 27 29 31 31 31 32 31 30 32 32 33 33 33 32 32 31 30 29 29 29 29 28 27 27 27 26 26 26 26 25 24 23 23 22 22 22 21 21 21 21 20 20 19 19 18
4 6 5 7 7 9 11 8 8 6 9 14 10 7 11 17 15 6 13 22 21 21 18 14 15 15 13 12 13 15 16 15 15 18 20 20 23 28 29 28 30 31 30 32 33 32 31 30 30 27 25 25 25 27 30 31 31 30 30 29 31 31 32 33 33 33 33 33 32 31 30 30 30 29 28 28 28 27 27 27 27 27 26 25 24 24 24 23 22 22 22 23 23 22 22 22 21
6 7 5 5 6 8 12 11 12 10 11 12 9 11 15 17 12 9 21 27 21 16 13 13 14 13 12 12 15 14 14 15 15 20 22 22 25 29 29 28 30 30 29 33 35 35 33 31 31 30 27 25 23 24 27 30 31 29 29 30 31 32 32 32 32 32 33 33 33 32 32 31 31 30 30 29 28 28 28 27 27 28 28 27 26 26 25 25 24 24 23 23 23 23 24 24 24
5 5 5 5 8 10 12 15 16 13 9 8 10 16 17 13 8 13 24 27 21 11 8 12 10 10 11 11 13 12 13 14 14 16 20 23 22 22 26 28 29 30 32 35 36 36 34 32 32 31 28 26 25 25 26 28 31 31 30 31 32 33 33 32 31 32 33 34 34 34 33 33 33 32 31 30 29 29 29 28 28 29 29 29 28 27 27 26 26 25 25 24 23 23 24 24 25
3 5 8 9 11 12 9 15 19 12 10 10 12 17 17 8 2 10 19 14 8 5 7 9 6 9 11 10 12 11 11 14 15 16 17 19 17 18 23 26 27 31 33 34 36 37 36 34 34 33 31 30 28 28 27 27 30 32 31 31 32 33 33 32 32 32 33 34 35 34 34 33 33 33 32 32 31 30 29 29 30 30 30 30 29 29 28 28 27 27 26 25 25 24 23 23 23
5 6 12 13 10 11 11 15 16 7 7 8 8 16 14 5 6 15 21 8 2 5 9 9 8 9 10 11 12 10 10 13 15 14 13 15 17 19 22 24 27 30 32 34 37 37 37 37 37 36 34 33 31 30 29 29 30 32 32 32 33 33 33 32 32 33 33 34 35 35 35 34 34 33 33 33 32 31 30 30 31 31 32 31 30 30 29 28 28 27 27 25 25 25 24 23 22
4 3 11 16 8 9 12 10 6 3 4 5 2 13 9 9 12 20 18 10 6 7 10 10 9 9 10 11 11 10 10 11 12 11 14 19 22 23 23 27 28 29 32 34 36 36 37 38 38 37 36 35 34 33 32 32 32 32 33 34 33 33 32 32 32 33 33 33 34 34 35 35 34 34 33 33 32 32 31 31 32 33 33 32 31 30 29 29 28 28 27 26 26 26 26 24 23
5 1 3 12 8 7 9 1 1 2 4 4 2 9 8 9 16 18 10 7 7 6 8 9 11 11 10 11 10 11 10 10 10 12 18 23 24 25 26 30 29 28 31 31 33 35 36 37 37 37 36 36 36 35 35 34 34 33 34 35 34 34 33 32 32 33 33 33 33 33 34 34 35 34 34 33 33 32 32 32 33 33 32 31 31 31 30 30 29 29 28 28 28 27 27 25 24
5 3 2 4 5 6 7 1 0 3 3 3 4 4 13 10 11 13 10 4 3 7 11 13 14 13 11 11 11 12 11 9 11 15 20 23 25 25 27 31 29 28 30 30 32 33 34 36 35 36 36 36 36 36 36 36 35 35 35 35 34 34 33 33 32 32 33 32 33 33 32 33 33 34 34 33 33 33 33 33 34 33 32 31 31 31 31 30 29 29 29 28 28 28 27 26 25
2 3 3 2 2 5 8 5 2 2 3 5 4 3 13 17 9 8 5 2 3 11 15 15 15 14 13 12 10 10 11 10 10 14 19 21 23 24 25 30 29 28 29 30 32 32 33 34 34 35 35 35 36 36 37 37 36 36 36 36 35 35 34 34 33 33 33 32 32 32 32 31 32 33 34 33 33 33 34 35 34 33 32 31 31 31 31 30 30 30 29 29 28 28 27 26 26
2 1 4 4 3 5 7 5 0 1 2 5 1 3 9 18 13 6 3 5 11 14 16 16 15 15 13 12 10 9 10 10 10 11 15 17 18 20 22 26 28 27 28 30 31 32 33 34 33 34 35 35 35 36 37 37 37 37 37 36 35 35 34 34 33 33 33 32 32 32 31 31 31 33 33 34 34 34 34 34 34 33 32 32 31 31 31 31 30 29 29 29 28 27 27 27 26
3 0 3 4 4 5 6 6 3 3 3 4 6 6 11 21 24 19 12 8 11 13 15 16 15 14 12 11 10 9 8 9 11 10 14 17 17 19 19 22 24 25 27 28 30 31 33 34 33 34 35 35 35 35 36 37 37 37 37 37 36 35 35 34 33 33 32 32 32 32 31 31 31 32 33 34 34 34 34 34 33 32 32 31 30 30 30 30 29 29 28 28 28 27 28 27 25
3 2 3 5 4 5 8 8 3 4 4 6 10 12 16 23 25 23 17 8 11 16 16 14 14 14 13 11 10 9 8 9 10 10 15 19 19 19 17 17 20 21 23 25 27 29 31 32 32 32 34 34 34 35 35 36 37 37 36 35 34 34 33 33 33 33 32 32 33 33 32 32 32 32 33 34 35 35 34 34 33 32 32 30 30 29 29 29 29 28 28 27 27 27 28 27 25
2 4 3 5 6 6 12 12 4 3 7 8 12 15 15 21 23 21 20 13 13 19 15 12 13 12 11 10 9 8 8 10 9 10 16 19 18 16 15 13 14 17 19 21 24 26 29 31 29 29 32 33 33 33 33 33 33 33 32 31 30 31 32 33 34 34 34 35 35 35 34 34 33 34 34 35 35 35 35 34 33 32 31 30 30 30 30 30 29 28 28 27 26 26 26 26 24
2 4 5 6 6 9 14 13 4 1 5 8 11 14 14 19 23 22 20 16 17 19 15 13 12 10 9 9 10 9 9 9 7 11 16 16 14 13 12 10 9 12 14 16 20 23 26 28 28 30 31 31 32 32 32 32 31 29 28 28 29 30 33 34 34 36 36 37 38 37 37 36 35 35 35 35 35 35 34 33 32 32 31 31 31 32 31 29 28 28 27 26 26 26 25 25 23
6 6 7 7 5 11 14 11 7 0 3 5 7 14 16 19 24 22 18 17 19 17 12 13 13 10 9 8 10 10 8 7 7 10 12 11 13 13 11 9 6 7 9 12 16 20 23 26 28 30 30 29 31 33 33 33 34 34 32 32 33 33 34 35 35 37 38 39 39 38 37 35 35 34 34 34 34 34 34 33 33 33 33 32 31 30 29 28 28 27 27 26 25 25 25 23 22
8 5 5 6 5 9 11 8 4 2 1 5 7 14 17 20 25 23 17 14 14 13 10 12 11 9 9 8 9 8 8 9 8 9 9 8 12 15 13 10 8 6 6 8 12 16 20 23 26 28 29 29 30 33 34 34 36 37 36 36 36 35 35 37 37 36 37 38 38 37 36 35 35 35 35 35 35 35 35 35 35 34 34 33 32 30 29 28 29 29 29 28 25 24 23 22 22
7 5 3 7 5 4 6 4 3 3 4 7 10 13 13 15 18 16 12 8 7 8 9 9 8 9 10 9 7 7 8 9 8 8 8 8 10 12 13 13 11 9 7 7 8 11 15 19 23 26 28 29 30 31 33 35 36 35 34 33 32 32 30 31 31 30 30 32 34 35 35 37 37 38 38 37 37 36 36 36 35 35 34 33 32 30 30 30 31 31 30 30 27 23 22 21 21
6 6 6 9 8 7 8 5 7 8 5 4 9 11 9 8 9 9 6 5 7 7 7 8 8 8 8 7 7 7 7 8 7 8 8 7 8 9 12 14 13 11 9 8 9 10 12 15 19 22 26 28 30 31 32 34 33 31 29 25 22 22 21 21 23 25 27 29 32 35 37 38 39 38 38 37 37 36 35 35 34 34 33 32 31 31 32 33 32 33 32 32 31 27 23 20 21
3 6 12 14 11 9 10 7 7 6 4 3 7 7 7 3 4 9 6 7 13 11 10 11 8 7 6 6 7 6 6 7 7 7 7 7 7 8 11 12 11 11 11 10 11 12 12 13 15 18 22 26 29 31 31 33 32 30 27 24 19 18 18 19 24 28 31 33 35 37 38 38 38 37 36 36 36 35 35 35 35 34 33 33 33 33 33 34 33 34 34 33 34 33 26 20 22
4 5 12 14 12 8 9 7 3 1 4 3 4 2 8 5 4 12 10 9 14 12 11 12 9 6 6 5 6 5 5 6 6 6 6 6 7 6 8 11 12 12 12 11 11 12 12 12 13 16 19 23 27 29 30 31 32 31 30 30 28 25 22 24 30 32 34 36 37 38 38 38 38 38 37 37 37 36 36 36 35 35 35 34 34 34 34 35 35 35 34 34 34 33 29 24 23
4 4 7 10 9 8 7 4 3 4 3 4 3 4 7 8 5 11 11 9 11 10 11 11 8 6 6 6 6 5 6 6 5 6 6 6 7 5 7 11 13 13 12 10 10 11 11 11 10 11 16 19 22 25 28 30 32 32 32 32 31 30 28 29 33 33 34 33 33 35 35 36 37 38 38 38 38 38 37 36 35 35 34 34 34 35 36 35 35 34 33 34 34 33 33 31 26
5 2 5 6 6 5 5 3 3 3 4 4 4 6 3 9 6 6 7 7 8 9 10 10 9 7 6 6 6 6 6 5 5 5 7 7 6 6 8 12 13 12 10 9 8 10 11 11 10 8 9 14 17 20 24 27 30 32 33 32 30 30 32 33 32 30 29 28 28 30 32 33 35 36 37 38 37 37 37 36 35 34 34 35 35 36 36 35 34 35 34 34 34 33 35 34 29
4 4 4 3 3 2 2 3 1 1 3 5 6 6 3 7 5 3 3 4 6 7 7 8 7 7 6 6 6 6 5 5 5 5 7 7 7 8 10 11 12 11 9 7 7 7 9 10 10 8 5 6 11 16 20 23 27 29 30 30 30 29 31 31 29 26 26 26 26 27 28 30 32 33 35 36 36 37 36 36 35 35 35 36 36 36 36 35 35 35 35 35 35 35 35 35 33
3 5 2 4 3 3 3 1 2 1 5 6 7 10 7 4 5 4 4 4 4 4 6 7 6 6 6 6 6 6 5 5 5 5 6 7 8 9 9 10 11 12 9 6 5 5 6 7 8 7 5 4 5 10 16 20 23 27 29 30 31 31 30 29 27 25 24 25 26 28 29 30 31 32 33 34 35 36 35 35 35 36 36 35 35 36 36 36 36 35 35 34 35 36 35 35 34
4 4 2 2 2 3 4 3 2 1 6 4 3 7 9 7 7 4 5 7 5 4 5 6 6 6 7 6 6 6 5 5 5 6 6 6 7 8 8 9 12 12 11 9 6 4 4 5 6 6 4 3 3 6 11 16 19 23 27 29 30 31 30 28 28 27 27 26 28 30 30 30 29 30 31 32 34 34 34 34 34 34 34 34 35 36 36 36 35 35 34 34 35 35 35 33 33
3 3 3 2 2 3 3 2 0 3 6 2 1 2 4 8 8 9 15 16 11 8 8 8 8 7 7 7 7 6 5 5 5 5 5 5 5 6 6 7 10 12 12 11 9 6 4 4 5 5 4 3 2 3 6 11 16 20 24 26 28 29 29 28 28 29 30 29 29 29 28 28 28 29 30 32 33 34 34 34 34 34 34 35 36 36 36 35 35 34 34 35 35 34 35 34 34
6 5 4 4 2 1 2 3 1 3 6 3 1 0 3 6 6 10 17 18 14 10 9 9 9 9 8 7 7 6 6 6 5 5 5 5 5 5 5 5 8 11 12 11 10 8 6 5 5 5 4 3 2 2 4 6 10 15 19 22 25 26 27 28 28 29 29 28 28 28 27 27 28 30 31 32 33 33 34 34 34 35 35 35 35 35 35 34 34 34 34 34 35 35 35 34 35
7 5 4 4 4 4 4 4 3 4 4 3 1 2 3 3 3 6 10 11 10 9 8 7 7 8 7 7 7 6 7 7 6 5 5 6 6 5 5 6 8 11 12 11 10 10 8 6 6 6 5 4 3 2 2 4 6 8 12 17 20 23 25 26 27 28 27 26 26 27 27 27 28 29 30 30 30 30 31 32 33 34 34 34 34 34 33 33 32 33 33 33 34 34 33 34 34
4 3 3 2 4 5 2 3 5 2 3 4 2 4 4 4 7 11 10 11 11 9 8 7 8 9 7 7 8 7 7 7 6 5 5 6 6 4 4 6 9 11 12 12 11 11 9 8 7 6 6 5 4 2 1 2 4 5 7 10 14 17 20 22 24 25 25 25 25 25 26 27 27 27 27 26 27 27 28 30 31 32 33 33 33 33 32 32 32 32 32 32 33 33 32 33 33
3 3 4 3 3 6 2 3 1 3 2 4 2 4 6 4 9 10 6 7 8 9 9 10 11 8 7 8 8 7 7 7 7 6 5 6 6 5 5 7 10 12 13 13 12 11 10 9 8 7 6 6 4 3 2 1 3 4 6 7 9 12 15 18 20 22 23 23 23 24 24 25 25 25 25 25 24 24 25 27 29 30 31 32 32 31 31 31 32 32 32 32 32 32 32 32 33
6 4 5 2 2 2 2 1 3 2 4 4 1 4 5 5 6 5 5 8 8 9 7 6 7 5 6 9 7 7 8 8 7 6 5 5 4 5 6 8 10 11 13 14 12 11 10 10 10 9 9 8 6 5 4 2 2 3 4 6 8 10 11 13 15 17 19 20 21 22 22 23 24 24 23 23 23 23 23 25 27 28 30 30 30 30 30 31 31 31 32 32 32 32 32 32 32
5 3 3 3 2 2 2 2 2 2 4 4 3 4 4 6 7 5 5 7 9 10 6 3 6 6 7 8 8 9 10 8 7 7 6 3 4 5 5 7 11 12 13 14 13 12 12 12 11 11 10 9 8 7 7 5 4 3 3 5 6 8 10 11 12 13 15 18 19 20 21 22 22 22 22 22 22 23 23 24 25 27 28 28 29 29 30 30 30 31 31 30 30 30 31 31 31
0 0 1 1 2 3 3 3 2 3 4 4 5 6 6 8 6 5 7 8 9 10 7 4 8 8 7 8 8 9 10 8 7 7 5 3 4 4 4 6 9 10 11 13 14 14 15 15 14 12 11 10 10 9 9 8 6 5 4 4 5 6 7 9 10 12 14 15 16 17 19 20 20 21 22 22 22 23 23 24 24 25 26 27 28 29 29 29 30 30 30 30 29 29 29 30 29
4 3 3 3 2 1 1 2 2 4 3 3 5 8 9 7 5 7 9 8 8 8 7 7 7 7 8 8 8 9 9 8 7 6 5 4 3 4 4 6 8 8 10 12 13 13 14 14 15 14 13 13 12 12 11 10 7 6 4 3 4 4 5 7 8 10 12 13 14 15 16 17 18 20 21 21 22 22 22 23 23 24 25 26 27 28 28 29 29 29 29 29 28 28 29 28 27
10 8 9 9 7 3 3 5 4 4 4 5 5 8 13 7 4 6 8 7 7 7 6 7 8 8 8 7 8 8 7 7 6 5 4 3 3 3 3 6 8 9 11 13 13 13 13 14 14 14 14 14 14 13 12 11 8 6 5 4 4 4 4 5 6 8 10 11 13 14 14 16 17 18 19 20 21 20 21 21 22 23 23 24 25 26 27 27 28 28 28 27 27 27 28 27 25
Wind_Direction
335 342 343 350 359 22 27 60 70 326 74 283 263 214 255 226 231 282 265 272 284 254 216 310 11 259 263 248 247 242 235 215 206 228 230 252 284 302 305 280 258 265 272 217 206 197 189 188 184 180 179 182 185 186 187 187 188 185 183 183 181 181 181 181 181 180 179 176 178 177 177 175 170 170 165 164 165 165 168 168 170 174 175 175 172 171 172 172 172 173 176 174 172 172 169 167 172
344 351 358 31 44 82 187 67 99 332 35 290 261 178 250 251 191 244 243 241 224 247 315 311 305 276 251 247 260 292 264 216 216 226 243 261 278 289 288 273 252 256 254 222 212 202 192 189 188 186 182 182 185 187 189 189 190 189 187 185 184 184 184 184 184 183 181 179 179 177 179 176 173 172 167 169 168 168 173 168 172 178 177 177 172 173 176 175 176 176 177 179 174 174 174 165 175
352 1 18 105 46 44 85 43 97 30 62 260 268 212 239 153 221 238 238 242 246 303 331 309 302 277 263 278 262 249 266 239 232 231 259 264 273 280 279 272 253 251 252 230 215 205 195 190 190 190 187 184 186 187 189 191 192 192 190 187 186 186 187 187 186 186 183 181 180 179 179 178 176 175 171 173 172 172 175 171 174 179 178 178 175 176 179 178 180 179 177 183 183 181 181 169 179
354 3 6 145 56 25 68 45 131 132 190 240 269 250 218 209 236 248 254 260 275 316 315 315 310 247 229 276 266 228 268 278 252 212 251 266 262 275 286 289 264 248 250 232 213 206 198 192 192 194 192 190 189 189 190 192 193 194 192 189 188 187 189 189 188 187 185 185 182 180 180 179 179 178 175 176 177 175 177 174 174 179 179 179 180 179 178 180 182 183 180 183 186 186 190 186 190
350 10 19 84 97 29 96 75 117 152 214 193 243 257 224 221 244 265 272 283 287 281 265 234 287 270 234 256 250 207 252 276 292 254 246 285 295 293 291 286 276 264 260 232 211 204 199 194 194 197 199 197 194 191 190 193 194 195 195 192 190 188 189 190 190 189 189 187 184 182 180 180 180 180 178 179 180 176 178 177 176 181 183 181 184 182 180 184 183 185 184 184 185 185 189 195 207
349 46 46 59 95 161 120 216 192 220 225 166 225 255 238 230 236 266 284 294 282 253 244 214 247 301 290 255 212 220 245 276 316 285 267 302 309 304 291 276 267 267 267 231 213 207 204 198 194 198 203 207 205 198 192 193 194 193 195 195 193 190 189 191 191 190 192 189 186 186 182 182 183 183 182 181 180 178 181 179 178 183 186 186 185 184 189 191 189 189 189 192 194 191 190 199 219
1 79 31 60 54 17 122 226 224 241 241 179 218 260 264 254 229 271 301 308 299 262 216 201 235 325 276 287 299 248 258 265 284 294 296 298 298 298 288 271 258 260 269 232 217 215 211 203 199 199 204 212 215 213 202 197 197 194 193 194 195 194 191 194 193 191 194 191 187 188 186 186 186 186 184 183 182 181 184 183 181 184 189 191 187 186 194 196 192 194 194 197 202 198 196 205 223
34 81 5 91 78 3 123 249 245 231 245 218 232 260 269 275 271 284 289 293 305 302 266 243 183 239 268 302 281 264 275 279 292 297 296 294 294 293 275 257 264 260 252 239 223 220 217 213 207 203 206 213 219 223 217 208 206 200 194 191 194 196 194 195 196 193 194 193 190 190 191 189 189 189 186 185 185 182 187 189 184 186 192 194 191 189 195 199 195 196 199 200 206 207 205 213 221
39 36 15 96 136 304 290 266 265 240 245 256 261 259 265 280 283 275 277 275 280 283 272 274 144 200 273 293 250 278 296 306 322 313 300 303 306 299 278 257 268 263 233 227 225 227 225 218 212 209 209 213 221 227 226 220 217 212 203 194 192 195 196 196 197 196 195 195 193 192 194 193 192 192 189 189 190 186 189 194 188 189 193 194 195 194 197 201 200 201 204 203 210 216 215 221 221
35 20 113 94 113 277 291 251 253 256 242 250 262 257 259 272 269 262 265 271 277 271 276 296 188 214 263 268 264 283 294 319 342 345 337 330 333 325 303 285 286 276 253 233 218 233 236 225 219 216 212 214 220 227 230 228 225 223 216 204 195 194 197 197 198 199 197 198 198 195 195 195 196 196 194 193 194 191 192 197 193 192 195 195 197 199 202 203 205 207 208 209 214 218 218 225 226
35 350 98 118 114 245 262 248 253 263 268 289 277 262 249 247 256 266 257 267 279 268 278 333 251 231 251 258 259 263 284 316 328 354 15 360 350 339 324 305 299 280 264 251 228 236 247 235 234 226 217 217 219 225 230 230 230 229 226 217 205 198 198 198 198 201 200 199 201 200 198 197 198 199 199 197 198 195 193 200 197 195 197 198 201 203 207 209 211 214 213 214 218 219 220 229 236
88 331 62 140 210 225 236 254 267 281 291 288 272 269 224 188 175 256 263 271 278 278 274 263 246 244 282 270 246 271 301 302 295 314 2 345 338 332 325 311 303 286 267 255 253 257 248 238 240 234 225 221 219 224 229 231 232 231 230 225 217 207 202 200 197 201 203 201 202 203 202 201 202 202 204 204 204 199 195 202 200 198 201 200 204 206 210 213 216 219 220 219 219 222 225 233 241
136 143 90 172 199 217 259 264 277 307 296 254 238 263 157 154 200 233 254 274 268 286 271 224 219 268 267 267 269 288 290 282 274 260 319 321 317 316 312 304 301 297 284 261 262 262 248 250 248 238 237 233 226 225 227 230 232 231 230 228 223 216 209 206 200 200 203 203 203 204 205 206 207 205 208 209 209 206 199 204 204 201 205 205 206 209 212 215 220 224 226 226 224 224 227 237 244
150 148 120 218 268 252 258 265 278 288 278 259 231 254 164 193 218 206 224 289 271 252 259 234 198 272 260 259 287 277 269 273 255 274 305 303 297 301 294 293 291 287 289 280 275 267 254 256 259 250 248 245 235 229 226 228 232 231 230 229 226 222 217 212 206 202 203 205 206 207 206 207 210 209 211 214 213 211 206 208 208 204 207 210 208 210 216 218 222 226 227 231 230 229 230 239 245
149 132 101 164 314 312 233 232 243 219 259 280 246 247 226 247 233 211 221 265 272 234 257 273 180 246 238 207 261 244 267 289 285 291 299 290 289 288 277 284 285 278 277 276 280 285 274 257 257 261 259 250 237 231 230 228 230 230 229 230 227 225 222 218 214 207 203 205 209 210 209 208 211 212 213 219 218 215 212 211 211 208 206 210 212 211 216 220 223 228 229 232 235 235 234 239 244
124 104 73 338 264 262 225 217 217 231 258 258 268 327 298 270 227 250 244 221 275 262 233 265 210 234 239 229 253 254 270 280 282 287 290 287 287 275 269 276 274 272 272 268 266 278 287 268 254 249 255 253 237 231 234 230 228 230 229 230 229 228 224 221 221 216 208 206 209 212 212 211 213 214 216 221 224 222 217 214 214 213 207 206 215 216 216 220 223 227 231 235 239 239 239 241 245
82 85 84 267 223 213 214 202 197 217 257 265 292 352 319 295 262 242 279 201 263 275 252 251 237 238 247 254 260 262 271 274 274 278 280 281 281 273 271 270 266 265 268 267 264 266 267 261 254 246 246 247 237 230 233 231 228 229 229 231 231 230 227 222 222 221 215 210 211 212 213 213 214 215 217 220 225 227 225 219 216 218 214 205 209 217 219 222 224 226 229 235 239 243 244 244 246
89 101 172 237 203 208 198 195 210 213 273 272 277 322 308 300 294 303 318 272 262 276 267 255 253 250 248 256 263 266 269 271 271 269 269 269 269 271 267 262 259 260 266 263 260 259 252 247 246 244 240 239 236 230 232 232 229 229 229 230 230 231 229 225 222 222 219 215 214 214 215 216 216 217 218 221 224 228 230 227 221 221 222 213 208 212 217 221 224 229 231 233 237 243 249 249 249
146 134 199 239 208 215 196 199 234 240 279 288 286 290 279 282 293 343 311 291 293 291 282 274 266 259 254 255 258 263 264 265 265 257 253 254 254 256 254 252 251 253 260 260 258 256 251 251 247 239 237 237 238 236 233 233 232 230 229 229 229 229 229 227 224 224 223 219 217 216 217 218 219 219 219 222 225 228 232 232 230 226 226 223 217 213 215 218 221 226 230 234 236 241 249 253 252
186 151 227 245 228 248 230 219 243 245 279 296 293 295 282 271 281 314 288 292 295 284 280 283 279 274 269 263 249 253 259 258 257 250 243 246 246 244 242 243 245 247 252 257 257 252 247 254 256 243 238 238 239 240 238 236 234 230 228 228 228 229 228 228 226 225 226 223 221 219 220 221 222 222 222 224 226 229 232 233 235 233 230 230 229 223 218 218 220 222 225 230 234 238 245 252 256
180 173 225 242 231 268 247 224 246 256 271 281 288 304 292 276 225 241 273 293 289 276 268 255 261 275 282 285 273 245 246 252 251 245 239 242 245 242 239 240 243 247 251 254 250 245 243 249 256 247 238 238 237 240 240 239 234 230 228 228 227 228 227 226 226 226 227 227 225 223 223 224 224 224 225 225 226 229 232 233 235 236 235 233 236 234 227 222 224 225 226 228 232 237 242 250 256
183 218 238 252 244 271 265 232 244 256 272 278 285 293 290 291 235 240 248 259 267 269 269 254 245 264 278 287 292 280 261 258 251 244 239 237 242 242 241 241 243 245 246 247 244 243 244 246 248 241 236 237 238 240 238 235 232 231 231 229 227 228 228 226 226 227 227 228 228 226 225 226 227 227 226 226 228 230 233 235 235 236 236 235 236 239 236 231 230 230 230 231 234 239 243 248 256
240 249 254 262 249 263 278 281 267 271 284 276 274 283 297 297 284 263 244 247 252 259 268 271 268 266 270 277 282 281 274 268 261 248 240 237 240 242 241 239 240 241 241 243 244 245 246 246 242 234 233 236 239 242 236 231 231 233 234 232 230 228 227 226 226 228 228 229 229 228 228 228 229 229 228 228 229 231 233 236 238 238 237 237 236 238 240 239 238 237 235 235 238 243 246 250 256
236 259 269 274 266 265 278 284 275 271 264 266 271 289 285 278 284 297 264 257 252 258 268 273 273 272 270 271 267 266 267 266 266 259 251 242 240 244 243 239 239 241 240 242 246 246 245 245 238 231 233 235 239 243 237 233 233 236 235 233 233 231 228 227 229 229 229 229 229 230 230 230 230 231 231 230 230 233 235 236 239 241 240 240 238 239 241 242 243 244 241 240 241 245 248 252 256
228 252 263 276 284 274 284 287 278 270 259 263 267 265 261 261 279 293 271 269 265 259 266 267 266 272 269 264 262 261 262 260 262 265 261 252 245 246 246 241 240 240 238 242 246 246 243 241 235 231 231 234 239 244 241 239 237 237 236 234 235 234 232 232 232 230 229 229 229 229 230 231 231 231 232 233 233 236 237 236 239 242 243 243 242 241 243 244 245 247 248 247 247 249 250 252 256
224 253 275 280 284 278 286 286 279 276 267 265 265 263 262 260 279 278 262 262 270 266 250 255 256 266 264 257 259 257 259 260 257 262 264 262 254 245 245 242 237 236 238 242 244 244 242 238 233 232 234 235 238 242 242 241 238 236 236 237 236 234 234 235 232 230 230 230 230 229 230 231 232 233 234 235 237 238 238 237 238 241 243 244 244 244 244 246 247 248 249 250 251 253 254 255 257
266 287 288 278 278 277 273 274 277 284 282 266 257 266 265 248 182 269 262 248 261 289 263 260 253 254 259 260 262 258 258 260 259 262 265 267 259 242 244 242 234 235 238 238 239 241 241 236 234 235 236 237 238 240 241 240 237 235 236 238 237 236 235 234 231 231 229 230 232 231 231 231 232 234 235 237 239 240 240 238 238 240 242 243 244 246 247 248 249 250 251 252 254 257 261 261 261
313 311 301 285 279 279 261 262 274 284 281 255 234 266 262 183 169 243 260 265 18 320 288 283 275 265 268 267 267 265 261 261 261 261 259 258 255 246 244 241 236 236 235 234 238 239 237 236 236 236 235 235 236 236 238 237 236 236 235 235 236 237 235 231 229 229 228 230 232 232 232 232 232 233 235 237 238 240 241 240 240 241 242 243 245 247 249 250 251 251 252 253 256 259 262 262 262
305 331 309 294 296 284 269 263 267 163 243 267 254 284 267 162 212 241 253 280 320 307 287 288 283 276 277 273 274 269 261 262 259 251 251 254 254 251 247 246 241 237 237 238 240 238 237 237 237 236 235 233 232 231 233 234 235 236 235 234 235 236 234 230 228 228 229 231 231 232 232 232 232 233 234 236 238 239 241 242 242 242 243 245 247 248 248 250 250 249 250 251 253 255 257 258 259
297 308 285 300 320 293 282 285 76 129 250 294 20 303 288 189 218 245 260 289 308 305 284 289 289 284 282 279 281 277 269 262 257 252 252 254 255 251 249 251 245 239 241 241 238 237 238 239 237 237 234 231 229 228 229 230 232 234 234 234 235 234 233 233 232 230 230 231 232 232 232 232 234 234 234 235 236 238 240 241 243 244 245 245 247 248 247 248 248 248 248 248 250 252 254 255 257
305 293 200 309 319 283 297 298 343 321 297 12 69 286 285 263 227 247 264 241 257 298 291 293 293 289 288 284 281 281 278 264 258 261 260 259 258 254 251 253 249 241 241 239 239 240 241 239 237 236 235 231 228 225 226 227 229 232 234 234 234 234 233 234 235 233 230 229 232 232 232 234 235 234 234 233 235 237 239 240 242 243 245 245 246 247 247 246 246 247 247 247 248 250 252 253 255
335 293 284 312 241 268 302 290 235 265 295 22 61 239 283 287 262 219 224 189 268 295 292 291 290 287 288 286 283 281 282 278 269 268 269 268 266 260 255 255 252 243 240 240 241 242 242 241 237 235 235 232 228 225 226 227 228 230 232 234 234 234 232 232 235 236 234 231 231 233 234 235 236 235 234 233 234 236 238 240 242 243 244 244 244 244 244 244 244 245 246 246 245 247 249 251 253
337 206 269 282 251 292 319 307 21 165 306 1 331 239 286 291 284 230 219 294 296 294 287 285 283 284 286 285 286 284 287 295 291 283 281 281 277 272 264 260 256 249 244 242 242 241 241 242 238 234 234 233 230 227 226 226 226 228 230 233 233 233 232 232 234 235 234 232 231 233 235 236 237 236 234 233 234 236 238 240 241 241 242 242 242 242 242 243 242 242 243 244 243 245 247 249 251
303 183 251 264 254 284 304 293 326 54 29 331 286 266 267 277 283 285 284 281 279 276 276 281 283 283 285 284 286 284 284 291 290 289 292 294 293 288 278 268 263 255 249 245 243 242 243 243 239 235 234 233 230 228 226 225 226 227 229 231 232 232 232 233 234 233 232 232 232 235 237 237 238 237 236 234 234 236 237 238 239 239 239 239 239 239 241 241 241 240 241 243 243 243 244 247 250
233 209 228 276 268 243 263 271 296 4 330 292 286 278 270 274 281 288 291 283 273 273 273 277 280 282 284 284 284 282 281 280 278 281 290 297 301 301 295 277 266 259 252 248 246 244 244 244 241 237 234 231 230 228 226 225 224 225 226 228 228 228 229 231 231 232 233 235 236 238 238 238 238 238 237 235 234 235 234 235 236 236 236 235 235 237 238 237 237 238 238 241 243 242 244 247 251
172 211 210 265 280 260 263 267 269 332 304 277 271 273 275 280 283 288 294 296 281 276 277 277 278 280 281 281 278 276 277 273 275 286 292 298 305 313 316 292 266 260 256 250 247 244 242 242 240 237 235 232 229 225 222 220 218 220 221 222 222 222 224 227 230 232 235 237 239 240 239 239 239 238 237 234 233 233 232 233 233 233 234 233 233 233 234 234 234 235 237 238 239 241 242 243 246
340 265 261 258 272 275 273 277 285 350 288 266 260 271 275 278 282 286 291 296 284 278 279 276 273 274 274 274 275 274 272 273 288 297 292 298 311 327 335 320 282 263 257 250 246 242 241 241 237 236 236 231 226 221 218 215 213 214 216 218 219 219 222 225 227 230 232 235 238 239 237 237 237 236 234 232 231 231 230 231 231 232 233 232 233 234 234 234 236 237 238 237 237 238 239 238 238
273 262 275 274 261 268 273 288 307 36 245 256 260 280 283 282 284 285 287 286 280 280 278 270 268 271 272 269 273 278 279 287 304 301 295 304 321 334 342 344 331 286 268 255 247 245 243 240 236 237 237 229 225 222 219 215 214 214 215 217 218 220 223 224 225 229 231 234 235 235 234 233 234 232 232 231 230 230 229 229 230 231 232 232 233 234 234 235 237 237 234 232 232 234 238 238 231
250 248 273 274 261 278 280 283 318 47 252 278 289 289 288 285 283 283 282 273 275 281 268 261 264 265 267 264 271 283 292 298 303 302 303 312 321 327 330 340 348 327 302 276 258 250 245 240 237 238 235 230 228 225 221 219 219 220 219 220 221 221 224 226 228 230 231 231 232 233 232 233 234 234 234 234 232 232 230 230 231 231 231 231 229 228 229 231 233 232 230 227 225 228 234 236 228
235 228 249 261 258 284 279 275 337 333 279 285 297 294 284 278 280 285 282 257 257 272 254 252 253 249 258 267 274 277 282 291 299 302 304 310 317 322 322 325 331 330 325 315 289 267 254 245 240 238 235 231 230 227 224 225 225 224 221 222 223 221 224 228 228 230 229 229 230 231 232 233 234 235 236 235 233 232 231 230 230 229 229 229 227 225 226 229 230 229 228 225 220 219 223 227 225
225 212 224 250 254 242 249 284 338 318 292 305 315 305 284 270 278 288 295 272 270 281 280 276 263 251 263 277 277 260 257 269 282 291 299 309 312 311 309 311 319 324 327 333 325 303 280 262 249 243 237 234 232 229 227 226 224 220 217 217 220 219 223 225 221 224 227 228 230 231 232 234 234 233 233 232 232 231 230 230 229 228 227 227 227 228 230 232 230 229 228 223 220 219 218 218 219
257 209 216 236 250 247 256 292 343 334 306 345 4 334 287 275 280 279 296 302 293 301 305 291 277 274 276 269 266 263 262 259 256 267 283 297 297 301 306 308 316 319 322 330 329 321 306 284 263 249 241 236 233 232 229 224 218 215 210 206 206 207 212 215 213 218 221 224 229 232 234 233 232 232 231 232 232 232 232 231 229 228 228 229 230 231 231 230 230 229 227 223 222 223 218 212 216
304 221 207 224 240 247 263 283 326 295 259 297 48 18 279 285 269 274 286 288 284 292 295 285 278 280 275 257 256 261 268 265 262 272 282 290 293 304 310 311 313 312 316 324 322 320 317 305 280 256 246 239 235 233 228 222 215 212 209 207 207 206 208 216 219 222 224 226 229 230 232 232 231 231 231 232 233 233 233 231 230 229 229 230 230 229 229 229 230 229 228 225 225 223 215 213 216
271 235 189 204 222 231 240 249 239 241 288 290 168 150 276 286 251 263 280 284 282 284 283 283 281 274 267 261 261 252 253 261 276 293 296 292 292 295 293 303 311 311 314 320 319 316 316 320 308 272 251 243 238 234 228 222 216 212 211 210 212 211 213 220 224 226 228 229 229 228 228 229 229 229 230 231 232 232 231 229 229 228 228 229 229 229 230 231 229 228 228 227 225 221 217 218 218
247 203 147 173 191 204 201 190 228 268 343 291 201 138 268 281 265 262 274 280 285 283 281 286 284 278 270 268 271 263 263 267 261 271 285 289 288 286 288 300 316 328 329 321 319 317 313 316 322 306 266 247 240 235 229 225 220 216 213 211 213 216 218 223 227 228 228 228 229 229 228 228 228 228 228 229 229 230 229 228 228 227 227 229 230 231 232 231 228 227 226 224 221 221 221 221 219
231 145 113 88 101 108 132 157 178 356 310 257 202 157 214 274 278 264 259 265 270 276 285 285 279 276 266 262 273 278 288 289 270 260 270 280 282 288 299 309 325 347 353 328 313 316 315 312 315 322 307 265 242 234 230 227 223 220 217 214 215 218 220 223 226 227 227 227 229 231 231 229 229 228 227 228 228 228 229 229 229 229 230 230 230 231 230 228 227 226 226 225 223 222 222 221 221
132 117 86 25 39 46 56 93 79 360 274 255 203 188 190 274 281 225 219 234 232 261 292 297 304 303 281 262 262 270 281 285 290 289 283 289 291 295 311 323 335 355 8 358 329 312 316 319 318 322 321 304 263 237 230 228 224 221 221 220 220 221 222 222 223 225 225 222 223 228 231 231 230 229 228 227 227 228 229 229 230 230 231 230 229 230 229 227 226 226 225 226 225 223 223 222 221
100 95 88 37 332 10 24 355 46 200 255 270 215 184 177 228 262 260 274 275 244 230 259 278 298 300 287 280 269 260 260 271 290 296 295 310 316 317 329 333 337 350 4 9 1 332 316 326 334 336 327 309 287 247 233 229 225 223 224 224 225 226 226 223 222 223 223 221 222 225 226 226 226 227 227 226 227 228 228 228 229 229 228 228 229 230 230 228 227 226 224 223 224 223 223 222 221
126 130 113 86 321 5 6 313 139 229 258 274 104 131 189 235 262 279 278 277 265 241 238 250 260 266 270 273 273 271 269 276 284 285 289 302 306 311 320 323 328 338 350 358 2 359 345 334 339 352 354 335 298 261 244 235 230 228 227 226 228 229 229 229 227 227 227 226 226 226 223 220 220 221 223 224 228 228 227 227 228 227 227 228 230 230 229 228 226 224 223 222 222 223 222 222 222
165 169 154 147 158 99 271 269 277 263 272 280 145 94 279 271 274 255 254 264 270 263 255 251 246 246 249 252 261 282 289 280 270 270 283 283 279 292 301 305 316 327 339 352 4 8 3 354 348 352 5 7 335 284 263 249 241 237 233 231 230 231 231 232 232 233 233 231 230 229 227 225 223 223 224 227 231 229 228 229 229 230 230 230 230 230 229 227 226 224 223 223 223 224 224 223 225
177 163 143 156 163 170 206 217 226 253 281 303 253 191 219 225 261 244 236 258 273 267 267 273 265 251 250 262 266 273 278 271 265 268 276 274 272 284 297 306 317 327 337 349 4 10 12 11 359 354 360 6 360 326 282 269 260 250 244 238 236 235 234 235 235 237 238 237 236 234 233 232 230 231 232 233 234 231 230 231 230 231 232 231 230 229 228 226 225 224 223 223 224 225 224 224 226
193 131 126 204 185 168 202 203 182 188 307 298 235 223 225 216 269 276 264 267 269 265 269 270 265 251 242 258 255 249 258 262 267 272 277 282 283 289 305 316 322 334 344 352 3 8 13 13 4 2 360 355 354 341 299 275 271 267 261 252 246 242 239 239 238 237 238 240 240 238 237 236 236 237 237 236 235 234 234 234 232 232 232 231 230 228 227 225 224 222 222 222 223 224 223 224 226
154 141 181 208 160 150 201 264 88 73 268 264 201 241 282 301 285 283 292 296 281 272 262 244 246 244 233 241 238 241 255 258 263 262 264 283 297 312 328 333 332 340 349 356 7 14 19 17 7 4 1 357 355 337 309 260 255 266 273 270 262 253 246 243 241 240 238 238 240 240 240 239 237 237 237 237 238 237 238 237 236 235 234 232 230 228 227 225 223 222 221 221 222 222 223 225 227
132 185 205 132 94 122 116 251 344 26 247 271 234 231 275 297 282 294 347 340 308 282 271 259 270 274 252 247 237 241 251 254 268 271 264 278 304 321 332 343 347 353 355 358 10 22 30 30 20 14 8 1 353 334 318 289 257 251 261 268 271 266 258 252 247 245 242 238 236 237 238 237 235 235 235 235 236 235 236 237 237 237 235 232 230 228 226 224 222 222 221 222 222 222 222 224 226
133 194 213 119 156 220 117 160 239 239 238 278 273 245 251 240 245 264 286 297 289 284 296 294 274 264 250 249 233 232 243 249 264 269 270 297 334 326 333 351 356 2 4 4 12 20 28 31 29 29 23 13 0 341 324 305 281 262 257 260 265 266 264 260 252 247 243 239 237 235 235 236 235 234 232 230 230 230 231 233 234 235 234 232 231 228 226 224 221 220 220 220 220 220 220 221 223
63 302 256 104 159 184 166 168 179 201 235 277 276 275 261 234 216 196 217 232 243 263 285 272 250 241 238 242 231 227 232 237 243 250 268 318 331 315 343 7 359 358 3 10 15 18 22 22 22 26 24 17 10 359 343 323 298 278 270 265 266 263 260 258 254 249 244 241 242 239 236 237 236 235 232 229 228 227 228 229 230 232 232 231 229 226 224 222 219 219 219 218 217 216 217 219 221
188 194 209 200 180 154 217 235 155 162 199 239 253 265 262 242 185 174 204 221 226 238 256 263 259 250 244 242 237 231 226 227 232 244 279 310 304 303 349 17 11 3 4 13 18 19 20 18 17 19 16 13 10 5 358 344 322 296 283 279 277 270 258 252 249 249 248 245 244 242 241 240 238 236 234 230 228 227 227 228 228 229 229 228 226 224 222 220 218 218 218 218 217 215 216 218 219
182 189 200 198 187 169 235 245 204 162 196 204 205 256 268 257 173 185 206 213 225 219 219 254 272 264 256 247 239 236 231 233 237 248 267 269 285 308 348 17 16 7 1 5 9 12 15 16 15 15 14 14 11 9 7 360 346 322 308 306 291 276 262 253 245 245 249 247 244 240 239 239 238 237 235 231 229 227 227 227 227 228 227 227 227 224 222 220 218 218 217 217 217 214 216 217 216